station,date_time,longitude_east,latitude_north,depth,sw_sal,sw_sal_result_value_qualifier,sea_water_temperature,sea_water_temperature_result_value_qualifier,sea_water_pressure,sea_water_pressure_result_value_qualifier,KD_PAR,KD_PAR_result_value_qualifier
VC17-1,2020-10-15T18:00:00Z,-78.79,52.66,3.70,18.63,,6.42,,0.93,,, NC
VC17-1,2020-10-15T18:30:00Z,-78.79,52.66,3.70,18.65,,6.40,,0.93,,, NC
VC17-1,2020-10-15T19:00:00Z,-78.79,52.66,3.70,18.73,,6.38,,0.93,,, NC
VC17-1,2020-10-15T19:30:00Z,-78.79,52.66,3.70,18.80,,6.37,,0.92,,, NC
VC17-1,2020-10-15T20:00:00Z,-78.79,52.66,3.70,18.82,,6.37,,0.92,,, NC
VC17-1,2020-10-15T20:30:00Z,-78.79,52.66,3.70,18.66,,6.30,,0.91,,, NC
VC17-1,2020-10-15T21:00:00Z,-78.79,52.66,3.70,18.60,,6.25,,0.91,,, NC
VC17-1,2020-10-15T21:30:00Z,-78.79,52.66,3.70,18.63,,6.26,,0.91,,, NC
VC17-1,2020-10-15T22:00:00Z,-78.79,52.66,3.70,18.86,,6.30,,0.91,,, NC
VC17-1,2020-10-15T22:30:00Z,-78.79,52.66,3.70,18.97,,6.34,,0.92,,, NC
VC17-1,2020-10-15T23:00:00Z,-78.79,52.66,3.70,19.00,,6.38,,0.93,,, NC
VC17-1,2020-10-15T23:30:00Z,-78.79,52.66,3.70,19.16,,6.41,,0.93,,, NC
VC17-1,2020-10-16T00:00:00Z,-78.79,52.66,3.70,19.22,,6.42,,0.93,,, NC
VC17-1,2020-10-16T00:30:00Z,-78.79,52.66,3.70,19.25,,6.41,,0.93,,, NC
VC17-1,2020-10-16T01:00:00Z,-78.79,52.66,3.70,19.29,,6.40,,0.93,,, NC
VC17-1,2020-10-16T01:30:00Z,-78.79,52.66,3.70,19.30,,6.40,,0.93,,, NC
VC17-1,2020-10-16T02:00:00Z,-78.79,52.66,3.70,19.32,,6.37,,0.92,,, NC
VC17-1,2020-10-16T02:30:00Z,-78.79,52.66,3.70,19.32,,6.36,,0.92,,, NC
VC17-1,2020-10-16T03:00:00Z,-78.79,52.66,3.70,19.28,,6.34,,0.92,,, NC
VC17-1,2020-10-16T03:30:00Z,-78.79,52.66,3.70,19.27,,6.30,,0.91,,, NC
VC17-1,2020-10-16T04:00:00Z,-78.79,52.66,3.70,19.21,,6.27,,0.91,,, NC
VC17-1,2020-10-16T04:30:00Z,-78.79,52.66,3.70,19.23,,6.28,,0.91,,, NC
VC17-1,2020-10-16T05:00:00Z,-78.79,52.66,3.70,19.24,,6.27,,0.91,,, NC
VC17-1,2020-10-16T05:30:00Z,-78.79,52.66,3.70,19.23,,6.28,,0.91,,, NC
VC17-1,2020-10-16T06:00:00Z,-78.79,52.66,3.70,19.21,,6.26,,0.91,,, NC
VC17-1,2020-10-16T06:30:00Z,-78.79,52.66,3.70,19.21,,6.25,,0.91,,, NC
VC17-1,2020-10-16T07:00:00Z,-78.79,52.66,3.70,19.15,,6.21,,0.90,,, NC
VC17-1,2020-10-16T07:30:00Z,-78.79,52.66,3.70,19.09,,6.17,,0.89,,, NC
VC17-1,2020-10-16T08:00:00Z,-78.79,52.66,3.70,19.09,,6.15,,0.89,,, NC
VC17-1,2020-10-16T08:30:00Z,-78.79,52.66,3.70,19.09,,6.15,,0.89,,, NC
VC17-1,2020-10-16T09:00:00Z,-78.79,52.66,3.70,19.07,,6.13,,0.89,,, NC
VC17-1,2020-10-16T09:30:00Z,-78.79,52.66,3.70,19.16,,6.16,,0.89,,, NC
VC17-1,2020-10-16T10:00:00Z,-78.79,52.66,3.70,19.11,,6.15,,0.89,,, NC
VC17-1,2020-10-16T10:30:00Z,-78.79,52.66,3.70,19.14,,6.17,,0.89,,, NC
VC17-1,2020-10-16T11:00:00Z,-78.79,52.66,3.70,19.18,,6.16,,0.89,,, NC
VC17-1,2020-10-16T11:30:00Z,-78.79,52.66,3.70,19.17,,6.12,,0.89,,, NC
VC17-1,2020-10-16T12:00:00Z,-78.79,52.66,3.70,19.15,,6.11,,0.89,,, NC
VC17-1,2020-10-16T12:30:00Z,-78.79,52.66,3.70,19.20,,6.11,,0.89,,, NC
VC17-1,2020-10-16T13:00:00Z,-78.79,52.66,3.70,19.25,,6.13,,0.89,,, NC
VC17-1,2020-10-16T13:30:00Z,-78.79,52.66,3.70,19.26,,6.12,,0.89,,, NC
VC17-1,2020-10-16T14:00:00Z,-78.79,52.66,3.70,19.27,,6.12,,0.89,,, NC
VC17-1,2020-10-16T14:30:00Z,-78.79,52.66,3.70,19.26,,6.13,,0.89,,, NC
VC17-1,2020-10-16T15:00:00Z,-78.79,52.66,3.70,19.26,,6.10,,0.88,,, NC
VC17-1,2020-10-16T15:30:00Z,-78.79,52.66,3.70,19.13,,6.02,,0.87,,, NC
VC17-1,2020-10-16T16:00:00Z,-78.79,52.66,3.70,19.01,,5.95,,0.86,,, NC
VC17-1,2020-10-16T16:30:00Z,-78.79,52.66,3.70,18.90,,5.85,,0.85,,, NC
VC17-1,2020-10-16T17:00:00Z,-78.79,52.66,3.70,18.77,,5.82,,0.84,,, NC
VC17-1,2020-10-16T17:30:00Z,-78.79,52.66,3.70,18.84,,5.94,,0.86,,, NC
VC17-1,2020-10-16T18:00:00Z,-78.79,52.66,3.70,19.02,,6.02,,0.87,,, NC
VC17-1,2020-10-16T18:30:00Z,-78.79,52.66,3.70,19.06,,6.03,,0.87,,, NC
VC17-1,2020-10-16T19:00:00Z,-78.79,52.66,3.70,19.08,,6.03,,0.87,,, NC
VC17-1,2020-10-16T19:30:00Z,-78.79,52.66,3.70,19.11,,6.02,,0.87,,, NC
VC17-1,2020-10-16T20:00:00Z,-78.79,52.66,3.70,19.10,,6.02,,0.87,,, NC
VC17-1,2020-10-16T20:30:00Z,-78.79,52.66,3.70,19.08,,6.01,,0.87,,, NC
VC17-1,2020-10-16T21:00:00Z,-78.79,52.66,3.70,19.06,,5.98,,0.87,,, NC
VC17-1,2020-10-16T21:30:00Z,-78.79,52.66,3.70,19.01,,5.88,,0.85,,, NC
VC17-1,2020-10-16T22:00:00Z,-78.79,52.66,3.70,19.04,,5.81,,0.84,,, NC
VC17-1,2020-10-16T22:30:00Z,-78.79,52.66,3.70,19.06,,5.77,,0.84,,, NC
VC17-1,2020-10-16T23:00:00Z,-78.79,52.66,3.70,19.02,,5.77,,0.84,,, NC
VC17-1,2020-10-16T23:30:00Z,-78.79,52.66,3.70,19.02,,5.85,,0.85,,, NC
VC17-1,2020-10-17T00:00:00Z,-78.79,52.66,3.70,19.00,,5.84,,0.85,,, NC
VC17-1,2020-10-17T00:30:00Z,-78.79,52.66,3.70,19.02,,5.83,,0.85,,, NC
VC17-1,2020-10-17T01:00:00Z,-78.79,52.66,3.70,19.09,,5.93,,0.86,,, NC
VC17-1,2020-10-17T01:30:00Z,-78.79,52.66,3.70,19.15,,5.91,,0.86,,, NC
VC17-1,2020-10-17T02:00:00Z,-78.79,52.66,3.70,19.21,,5.90,,0.86,,, NC
VC17-1,2020-10-17T02:30:00Z,-78.79,52.66,3.70,19.20,,5.87,,0.85,,, NC
VC17-1,2020-10-17T03:00:00Z,-78.79,52.66,3.70,19.15,,5.79,,0.84,,, NC
VC17-1,2020-10-17T03:30:00Z,-78.79,52.66,3.70,18.99,,5.37,,0.78,,, NC
VC17-1,2020-10-17T04:00:00Z,-78.79,52.66,3.70,18.79,,5.36,,0.78,,, NC
VC17-1,2020-10-17T04:30:00Z,-78.79,52.66,3.70,19.00,,5.70,,0.83,,, NC
VC17-1,2020-10-17T05:00:00Z,-78.79,52.66,3.70,19.03,,5.71,,0.83,,, NC
VC17-1,2020-10-17T05:30:00Z,-78.79,52.66,3.70,19.09,,5.70,,0.83,,, NC
VC17-1,2020-10-17T06:00:00Z,-78.79,52.66,3.70,19.09,,5.70,,0.83,,, NC
VC17-1,2020-10-17T06:30:00Z,-78.79,52.66,3.70,19.09,,5.69,,0.83,,, NC
VC17-1,2020-10-17T07:00:00Z,-78.79,52.66,3.70,19.09,,5.67,,0.82,,, NC
VC17-1,2020-10-17T07:30:00Z,-78.79,52.66,3.70,19.06,,5.62,,0.82,,, NC
VC17-1,2020-10-17T08:00:00Z,-78.79,52.66,3.70,19.03,,5.60,,0.81,,, NC
VC17-1,2020-10-17T08:30:00Z,-78.79,52.66,3.70,19.02,,5.58,,0.81,,, NC
VC17-1,2020-10-17T09:00:00Z,-78.79,52.66,3.70,19.01,,5.67,,0.82,,, NC
VC17-1,2020-10-17T09:30:00Z,-78.79,52.66,3.70,19.06,,5.66,,0.82,,, NC
VC17-1,2020-10-17T10:00:00Z,-78.79,52.66,3.70,19.06,,5.49,,0.80,,, NC
VC17-1,2020-10-17T10:30:00Z,-78.79,52.66,3.70,19.06,,5.50,,0.80,,, NC
VC17-1,2020-10-17T11:00:00Z,-78.79,52.66,3.70,18.95,,5.48,,0.79,,, NC
VC17-1,2020-10-17T11:30:00Z,-78.79,52.66,3.70,18.89,,5.50,,0.80,,, NC
VC17-1,2020-10-17T12:00:00Z,-78.79,52.66,3.70,18.86,,5.54,,0.80,,, NC
VC17-1,2020-10-17T12:30:00Z,-78.79,52.66,3.70,18.82,,5.60,,0.81,,, NC
VC17-1,2020-10-17T13:00:00Z,-78.79,52.66,3.70,18.77,,5.65,,0.82,,, NC
VC17-1,2020-10-17T13:30:00Z,-78.79,52.66,3.70,18.77,,5.65,,0.82,,, NC
VC17-1,2020-10-17T14:00:00Z,-78.79,52.66,3.70,18.78,,5.65,,0.82,,, NC
VC17-1,2020-10-17T14:30:00Z,-78.79,52.66,3.70,18.79,,5.68,,0.82,,, NC
VC17-1,2020-10-17T15:00:00Z,-78.79,52.66,3.70,18.79,,5.66,,0.82,,, NC
VC17-1,2020-10-17T15:30:00Z,-78.79,52.66,3.70,18.79,,5.65,,0.82,,, NC
VC17-1,2020-10-17T16:00:00Z,-78.79,52.66,3.70,18.80,,5.61,,0.81,,, NC
VC17-1,2020-10-17T16:30:00Z,-78.79,52.66,3.70,18.85,,5.43,,0.79,,, NC
VC17-1,2020-10-17T17:00:00Z,-78.79,52.66,3.70,18.86,,5.45,,0.79,,, NC
VC17-1,2020-10-17T17:30:00Z,-78.79,52.66,3.70,18.85,,5.54,,0.80,,, NC
VC17-1,2020-10-17T18:00:00Z,-78.79,52.66,3.70,18.84,,5.56,,0.81,,, NC
VC17-1,2020-10-17T18:30:00Z,-78.79,52.66,3.70,18.86,,5.56,,0.81,,, NC
VC17-1,2020-10-17T19:00:00Z,-78.79,52.66,3.70,18.82,,5.53,,0.80,,, NC
VC17-1,2020-10-17T19:30:00Z,-78.79,52.66,3.70,18.76,,5.50,,0.80,,, NC
VC17-1,2020-10-17T20:00:00Z,-78.79,52.66,3.70,18.75,,5.46,,0.79,,, NC
VC17-1,2020-10-17T20:30:00Z,-78.79,52.66,3.70,18.76,,5.41,,0.78,,, NC
VC17-1,2020-10-17T21:00:00Z,-78.79,52.66,3.70,18.77,,5.37,,0.78,,, NC
VC17-1,2020-10-17T21:30:00Z,-78.79,52.66,3.70,18.77,,5.31,,0.77,,, NC
VC17-1,2020-10-17T22:00:00Z,-78.79,52.66,3.70,18.76,,5.34,,0.77,,, NC
VC17-1,2020-10-17T22:30:00Z,-78.79,52.66,3.70,18.72,,5.46,,0.79,,, NC
VC17-1,2020-10-17T23:00:00Z,-78.79,52.66,3.70,18.67,,5.53,,0.80,,, NC
VC17-1,2020-10-17T23:30:00Z,-78.79,52.66,3.70,18.67,,5.50,,0.80,,, NC
VC17-1,2020-10-18T00:00:00Z,-78.79,52.66,3.70,18.69,,5.43,,0.79,,, NC
VC17-1,2020-10-18T00:30:00Z,-78.79,52.66,3.70,18.69,,5.43,,0.79,,, NC
VC17-1,2020-10-18T01:00:00Z,-78.79,52.66,3.70,18.67,,5.46,,0.79,,, NC
VC17-1,2020-10-18T01:30:00Z,-78.79,52.66,3.70,18.71,,5.68,,0.82,,, NC
VC17-1,2020-10-18T02:00:00Z,-78.79,52.66,3.70,18.76,,5.69,,0.83,,, NC
VC17-1,2020-10-18T02:30:00Z,-78.79,52.66,3.70,18.76,,5.70,,0.83,,, NC
VC17-1,2020-10-18T03:00:00Z,-78.79,52.66,3.70,18.79,,5.67,,0.82,,, NC
VC17-1,2020-10-18T03:30:00Z,-78.79,52.66,3.70,18.78,,5.67,,0.82,,, NC
VC17-1,2020-10-18T04:00:00Z,-78.79,52.66,3.70,18.78,,5.64,,0.82,,, NC
VC17-1,2020-10-18T04:30:00Z,-78.79,52.66,3.70,18.78,,5.60,,0.81,,, NC
VC17-1,2020-10-18T05:00:00Z,-78.79,52.66,3.70,18.78,,5.57,,0.81,,, NC
VC17-1,2020-10-18T05:30:00Z,-78.79,52.66,3.70,18.79,,5.60,,0.81,,, NC
VC17-1,2020-10-18T06:00:00Z,-78.79,52.66,3.70,18.77,,5.62,,0.82,,, NC
VC17-1,2020-10-18T06:30:00Z,-78.79,52.66,3.70,18.77,,5.64,,0.82,,, NC
VC17-1,2020-10-18T07:00:00Z,-78.79,52.66,3.70,18.77,,5.43,,0.79,,, NC
VC17-1,2020-10-18T07:30:00Z,-78.79,52.66,3.70,18.72,,5.22,,0.76,,, NC
VC17-1,2020-10-18T08:00:00Z,-78.79,52.66,3.70,18.68,,5.01,,0.73,,, NC
VC17-1,2020-10-18T08:30:00Z,-78.79,52.66,3.70,18.60,,4.94,,0.72,,, NC
VC17-1,2020-10-18T09:00:00Z,-78.79,52.66,3.70,18.61,,5.10,,0.74,,, NC
VC17-1,2020-10-18T09:30:00Z,-78.79,52.66,3.70,18.67,,5.35,,0.78,,, NC
VC17-1,2020-10-18T10:00:00Z,-78.79,52.66,3.70,18.69,,4.99,,0.72,,, NC
VC17-1,2020-10-18T10:30:00Z,-78.79,52.66,3.70,18.72,,5.10,,0.74,,, NC
VC17-1,2020-10-18T11:00:00Z,-78.79,52.66,3.70,18.68,,5.36,,0.78,,, NC
VC17-1,2020-10-18T11:30:00Z,-78.79,52.66,3.70,18.73,,5.50,,0.80,,, NC
VC17-1,2020-10-18T12:00:00Z,-78.79,52.66,3.70,18.76,,5.57,,0.81,,, NC
VC17-1,2020-10-18T12:30:00Z,-78.79,52.66,3.70,18.77,,5.58,,0.81,,, NC
VC17-1,2020-10-18T13:00:00Z,-78.79,52.66,3.70,18.76,,5.54,,0.80,,, NC
VC17-1,2020-10-18T13:30:00Z,-78.79,52.66,3.70,18.73,,5.53,,0.80,,, NC
VC17-1,2020-10-18T14:00:00Z,-78.79,52.66,3.70,18.72,,5.58,,0.81,,, NC
VC17-1,2020-10-18T14:30:00Z,-78.79,52.66,3.70,18.73,,5.54,,0.80,,, NC
VC17-1,2020-10-18T15:00:00Z,-78.79,52.66,3.70,18.61,,5.26,,0.76,,, NC
VC17-1,2020-10-18T15:30:00Z,-78.79,52.66,3.70,18.69,,5.54,,0.80,,, NC
VC17-1,2020-10-18T16:00:00Z,-78.79,52.66,3.70,18.75,,5.67,,0.82,,, NC
VC17-1,2020-10-18T16:30:00Z,-78.79,52.66,3.70,18.78,,5.66,,0.82,,, NC
VC17-1,2020-10-18T17:00:00Z,-78.79,52.66,3.70,18.78,,5.67,,0.82,,, NC
VC17-1,2020-10-18T17:30:00Z,-78.79,52.66,3.70,18.78,,5.66,,0.82,,, NC
VC17-1,2020-10-18T18:00:00Z,-78.79,52.66,3.70,18.79,,5.60,,0.81,,, NC
VC17-1,2020-10-18T18:30:00Z,-78.79,52.66,3.70,18.77,,5.59,,0.81,,, NC
VC17-1,2020-10-18T19:00:00Z,-78.79,52.66,3.70,18.73,,5.40,,0.78,,, NC
VC17-1,2020-10-18T19:30:00Z,-78.79,52.66,3.70,18.71,,5.44,,0.79,,, NC
VC17-1,2020-10-18T20:00:00Z,-78.79,52.66,3.70,18.69,,5.33,,0.77,,, NC
VC17-1,2020-10-18T20:30:00Z,-78.79,52.66,3.70,18.62,,5.11,,0.74,,, NC
VC17-1,2020-10-18T21:00:00Z,-78.79,52.66,3.70,18.56,,5.01,,0.73,,, NC
VC17-1,2020-10-18T21:30:00Z,-78.79,52.66,3.70,18.54,,4.98,,0.72,,, NC
VC17-1,2020-10-18T22:00:00Z,-78.79,52.66,3.70,18.53,,4.98,,0.72,,, NC
VC17-1,2020-10-18T22:30:00Z,-78.79,52.66,3.70,18.46,,4.93,,0.72,,, NC
VC17-1,2020-10-18T23:00:00Z,-78.79,52.66,3.70,18.20,,4.78,,0.69,,, NC
VC17-1,2020-10-18T23:30:00Z,-78.79,52.66,3.70,18.27,,5.06,,0.73,,, NC
VC17-1,2020-10-19T00:00:00Z,-78.79,52.66,3.70,18.45,,5.44,,0.79,,, NC
VC17-1,2020-10-19T00:30:00Z,-78.79,52.66,3.70,18.56,,5.58,,0.81,,, NC
VC17-1,2020-10-19T01:00:00Z,-78.79,52.66,3.70,18.56,,5.58,,0.81,,, NC
VC17-1,2020-10-19T01:30:00Z,-78.79,52.66,3.70,18.65,,5.50,,0.80,,, NC
VC17-1,2020-10-19T02:00:00Z,-78.79,52.66,3.70,18.73,,5.54,,0.80,,, NC
VC17-1,2020-10-19T02:30:00Z,-78.79,52.66,3.70,18.75,,5.52,,0.80,,, NC
VC17-1,2020-10-19T03:00:00Z,-78.79,52.66,3.70,18.76,,5.52,,0.80,,, NC
VC17-1,2020-10-19T03:30:00Z,-78.79,52.66,3.70,18.77,,5.52,,0.80,,, NC
VC17-1,2020-10-19T04:00:00Z,-78.79,52.66,3.70,18.79,,5.51,,0.80,,, NC
VC17-1,2020-10-19T04:30:00Z,-78.79,52.66,3.70,18.79,,5.50,,0.80,,, NC
VC17-1,2020-10-19T05:00:00Z,-78.79,52.66,3.70,18.79,,5.49,,0.80,,, NC
VC17-1,2020-10-19T05:30:00Z,-78.79,52.66,3.70,18.79,,5.48,,0.79,,, NC
VC17-1,2020-10-19T06:00:00Z,-78.79,52.66,3.70,18.79,,5.45,,0.79,,, NC
VC17-1,2020-10-19T06:30:00Z,-78.79,52.66,3.70,18.79,,5.40,,0.78,,, NC
VC17-1,2020-10-19T07:00:00Z,-78.79,52.66,3.70,18.79,,5.39,,0.78,,, NC
VC17-1,2020-10-19T07:30:00Z,-78.79,52.66,3.70,18.76,,5.39,,0.78,,, NC
VC17-1,2020-10-19T08:00:00Z,-78.79,52.66,3.70,18.74,,5.35,,0.78,,, NC
VC17-1,2020-10-19T08:30:00Z,-78.79,52.66,3.70,18.71,,5.26,,0.76,,, NC
VC17-1,2020-10-19T09:00:00Z,-78.79,52.66,3.70,18.66,,5.17,,0.75,,, NC
VC17-1,2020-10-19T09:30:00Z,-78.79,52.66,3.70,18.58,,5.02,,0.73,,, NC
VC17-1,2020-10-19T10:00:00Z,-78.79,52.66,3.70,18.52,,4.98,,0.72,,, NC
VC17-1,2020-10-19T10:30:00Z,-78.79,52.66,3.70,18.51,,4.99,,0.72,,, NC
VC17-1,2020-10-19T11:00:00Z,-78.79,52.66,3.70,18.52,,5.07,,0.74,,, NC
VC17-1,2020-10-19T11:30:00Z,-78.79,52.66,3.70,18.53,,5.17,,0.75,,, NC
VC17-1,2020-10-19T12:00:00Z,-78.79,52.66,3.70,18.53,,5.17,,0.75,,, NC
VC17-1,2020-10-19T12:30:00Z,-78.79,52.66,3.70,18.52,,5.16,,0.75,,, NC
VC17-1,2020-10-19T13:00:00Z,-78.79,52.66,3.70,18.50,,5.14,,0.75,,, NC
VC17-1,2020-10-19T13:30:00Z,-78.79,52.66,3.70,18.47,,5.09,,0.74,,, NC
VC17-1,2020-10-19T14:00:00Z,-78.79,52.66,3.70,18.50,,5.22,,0.76,,, NC
VC17-1,2020-10-19T14:30:00Z,-78.79,52.66,3.70,18.53,,5.27,,0.76,,, NC
VC17-1,2020-10-19T15:00:00Z,-78.79,52.66,3.70,18.62,,5.42,,0.79,,, NC
VC17-1,2020-10-19T15:30:00Z,-78.79,52.66,3.70,18.66,,5.43,,0.79,,, NC
VC17-1,2020-10-19T16:00:00Z,-78.79,52.66,3.70,18.67,,5.43,,0.79,,, NC
VC17-1,2020-10-19T16:30:00Z,-78.79,52.66,3.70,18.68,,5.42,,0.79,,, NC
VC17-1,2020-10-19T17:00:00Z,-78.79,52.66,3.70,18.68,,5.27,,0.76,,, NC
VC17-1,2020-10-19T17:30:00Z,-78.79,52.66,3.70,18.64,,5.07,,0.74,,, NC
VC17-1,2020-10-19T18:00:00Z,-78.79,52.66,3.70,18.39,,4.84,,0.70,,, NC
VC17-1,2020-10-19T18:30:00Z,-78.79,52.66,3.70,18.24,,4.81,,0.70,,, NC
VC17-1,2020-10-19T19:00:00Z,-78.79,52.66,3.70,18.24,,4.97,,0.72,,, NC
VC17-1,2020-10-19T19:30:00Z,-78.79,52.66,3.70,18.33,,4.94,,0.72,,, NC
VC17-1,2020-10-19T20:00:00Z,-78.79,52.66,3.70,18.33,,4.94,,0.72,,, NC
VC17-1,2020-10-19T20:30:00Z,-78.79,52.66,3.70,18.34,,4.97,,0.72,,, NC
VC17-1,2020-10-19T21:00:00Z,-78.79,52.66,3.70,18.37,,4.94,,0.72,,, NC
VC17-1,2020-10-19T21:30:00Z,-78.79,52.66,3.70,18.35,,4.94,,0.72,,, NC
VC17-1,2020-10-19T22:00:00Z,-78.79,52.66,3.70,18.34,,4.90,,0.71,,, NC
VC17-1,2020-10-19T22:30:00Z,-78.79,52.66,3.70,18.31,,4.91,,0.71,,, NC
VC17-1,2020-10-19T23:00:00Z,-78.79,52.66,3.70,18.28,,4.87,,0.71,,, NC
VC17-1,2020-10-19T23:30:00Z,-78.79,52.66,3.70,18.19,,4.85,,0.70,,, NC
VC17-1,2020-10-20T00:00:00Z,-78.79,52.66,3.70,18.21,,4.90,,0.71,,, NC
VC17-1,2020-10-20T00:30:00Z,-78.79,52.66,3.70,18.18,,4.90,,0.71,,, NC
VC17-1,2020-10-20T01:00:00Z,-78.79,52.66,3.70,18.13,,4.85,,0.70,,, NC
VC17-1,2020-10-20T01:30:00Z,-78.79,52.66,3.70,18.10,,4.84,,0.70,,, NC
VC17-1,2020-10-20T02:00:00Z,-78.79,52.66,3.70,18.18,,5.03,,0.73,,, NC
VC17-1,2020-10-20T02:30:00Z,-78.79,52.66,3.70,18.34,,5.29,,0.77,,, NC
VC17-1,2020-10-20T03:00:00Z,-78.79,52.66,3.70,18.41,,5.35,,0.78,,, NC
VC17-1,2020-10-20T03:30:00Z,-78.79,52.66,3.70,18.42,,5.36,,0.78,,, NC
VC17-1,2020-10-20T04:00:00Z,-78.79,52.66,3.70,18.42,,5.37,,0.78,,, NC
VC17-1,2020-10-20T04:30:00Z,-78.79,52.66,3.70,18.42,,5.36,,0.78,,, NC
VC17-1,2020-10-20T05:00:00Z,-78.79,52.66,3.70,18.39,,5.36,,0.78,,, NC
VC17-1,2020-10-20T05:30:00Z,-78.79,52.66,3.70,18.39,,5.26,,0.76,,, NC
VC17-1,2020-10-20T06:00:00Z,-78.79,52.66,3.70,18.39,,5.08,,0.74,,, NC
VC17-1,2020-10-20T06:30:00Z,-78.79,52.66,3.70,18.38,,5.10,,0.74,,, NC
VC17-1,2020-10-20T07:00:00Z,-78.79,52.66,3.70,18.36,,5.11,,0.74,,, NC
VC17-1,2020-10-20T07:30:00Z,-78.79,52.66,3.70,18.32,,5.07,,0.74,,, NC
VC17-1,2020-10-20T08:00:00Z,-78.79,52.66,3.70,18.31,,5.02,,0.73,,, NC
VC17-1,2020-10-20T08:30:00Z,-78.79,52.66,3.70,18.29,,5.03,,0.73,,, NC
VC17-1,2020-10-20T09:00:00Z,-78.79,52.66,3.70,18.24,,5.02,,0.73,,, NC
VC17-1,2020-10-20T09:30:00Z,-78.79,52.66,3.70,18.22,,5.03,,0.73,,, NC
VC17-1,2020-10-20T10:00:00Z,-78.79,52.66,3.70,18.21,,5.01,,0.73,,, NC
VC17-1,2020-10-20T10:30:00Z,-78.79,52.66,3.70,18.15,,4.95,,0.72,,, NC
VC17-1,2020-10-20T11:00:00Z,-78.79,52.66,3.70,18.09,,4.99,,0.72,,, NC
VC17-1,2020-10-20T11:30:00Z,-78.79,52.66,3.70,18.07,,4.94,,0.72,,, NC
VC17-1,2020-10-20T12:00:00Z,-78.79,52.66,3.70,18.01,,4.97,,0.72,,, NC
VC17-1,2020-10-20T12:30:00Z,-78.79,52.66,3.70,17.92,,5.00,,0.73,,, NC
VC17-1,2020-10-20T13:00:00Z,-78.79,52.66,3.70,17.86,,5.02,,0.73,,, NC
VC17-1,2020-10-20T13:30:00Z,-78.79,52.66,3.70,17.83,,5.04,,0.73,,, NC
VC17-1,2020-10-20T14:00:00Z,-78.79,52.66,3.70,17.76,,5.00,,0.73,,, NC
VC17-1,2020-10-20T14:30:00Z,-78.79,52.66,3.70,17.78,,5.08,,0.74,,, NC
VC17-1,2020-10-20T15:00:00Z,-78.79,52.66,3.70,17.84,,5.28,,0.77,,, NC
VC17-1,2020-10-20T15:30:00Z,-78.79,52.66,3.70,17.86,,5.32,,0.77,,, NC
VC17-1,2020-10-20T16:00:00Z,-78.79,52.66,3.70,17.86,,5.32,,0.77,,, NC
VC17-1,2020-10-20T16:30:00Z,-78.79,52.66,3.70,17.87,,5.33,,0.77,,, NC
VC17-1,2020-10-20T17:00:00Z,-78.79,52.66,3.70,17.88,,5.32,,0.77,,, NC
VC17-1,2020-10-20T17:30:00Z,-78.79,52.66,3.70,17.86,,5.29,,0.77,,, NC
VC17-1,2020-10-20T18:00:00Z,-78.79,52.66,3.70,17.86,,5.26,,0.76,,, NC
VC17-1,2020-10-20T18:30:00Z,-78.79,52.66,3.70,17.85,,5.07,,0.74,,, NC
VC17-1,2020-10-20T19:00:00Z,-78.79,52.66,3.70,17.84,,4.87,,0.71,,, NC
VC17-1,2020-10-20T19:30:00Z,-78.79,52.66,3.70,17.78,,4.82,,0.70,,, NC
VC17-1,2020-10-20T20:00:00Z,-78.79,52.66,3.70,17.74,,4.95,,0.72,,, NC
VC17-1,2020-10-20T20:30:00Z,-78.79,52.66,3.70,17.71,,4.98,,0.72,,, NC
VC17-1,2020-10-20T21:00:00Z,-78.79,52.66,3.70,17.70,,4.94,,0.72,,, NC
VC17-1,2020-10-20T21:30:00Z,-78.79,52.66,3.70,17.68,,4.86,,0.70,,, NC
VC17-1,2020-10-20T22:00:00Z,-78.79,52.66,3.70,17.66,,4.83,,0.70,,, NC
VC17-1,2020-10-20T22:30:00Z,-78.79,52.66,3.70,17.61,,4.83,,0.70,,, NC
VC17-1,2020-10-20T23:00:00Z,-78.79,52.66,3.70,17.59,,4.80,,0.70,,, NC
VC17-1,2020-10-20T23:30:00Z,-78.79,52.66,3.70,17.54,,4.84,,0.70,,, NC
VC17-1,2020-10-21T00:00:00Z,-78.79,52.66,3.70,17.48,,4.87,,0.71,,, NC
VC17-1,2020-10-21T00:30:00Z,-78.79,52.66,3.70,17.40,,4.89,,0.71,,, NC
VC17-1,2020-10-21T01:00:00Z,-78.79,52.66,3.70,17.36,,4.99,,0.72,,, NC
VC17-1,2020-10-21T01:30:00Z,-78.79,52.66,3.70,17.33,,5.02,,0.73,,, NC
VC17-1,2020-10-21T02:00:00Z,-78.79,52.66,3.70,17.29,,4.99,,0.72,,, NC
VC17-1,2020-10-21T02:30:00Z,-78.79,52.66,3.70,17.24,,5.02,,0.73,,, NC
VC17-1,2020-10-21T03:00:00Z,-78.79,52.66,3.70,17.29,,5.14,,0.75,,, NC
VC17-1,2020-10-21T03:30:00Z,-78.79,52.66,3.70,17.30,,5.14,,0.75,,, NC
VC17-1,2020-10-21T04:00:00Z,-78.79,52.66,3.70,17.28,,5.11,,0.74,,, NC
VC17-1,2020-10-21T04:30:00Z,-78.79,52.66,3.70,17.28,,5.09,,0.74,,, NC
VC17-1,2020-10-21T05:00:00Z,-78.79,52.66,3.70,17.28,,5.10,,0.74,,, NC
VC17-1,2020-10-21T05:30:00Z,-78.79,52.66,3.70,17.29,,5.11,,0.74,,, NC
VC17-1,2020-10-21T06:00:00Z,-78.79,52.66,3.70,17.29,,5.12,,0.74,,, NC
VC17-1,2020-10-21T06:30:00Z,-78.79,52.66,3.70,17.27,,5.08,,0.74,,, NC
VC17-1,2020-10-21T07:00:00Z,-78.79,52.66,3.70,17.27,,5.07,,0.74,,, NC
VC17-1,2020-10-21T07:30:00Z,-78.79,52.66,3.70,17.25,,5.09,,0.74,,, NC
VC17-1,2020-10-21T08:00:00Z,-78.79,52.66,3.70,17.24,,5.10,,0.74,,, NC
VC17-1,2020-10-21T08:30:00Z,-78.79,52.66,3.70,17.22,,5.09,,0.74,,, NC
VC17-1,2020-10-21T09:00:00Z,-78.79,52.66,3.70,17.21,,5.07,,0.74,,, NC
VC17-1,2020-10-21T09:30:00Z,-78.79,52.66,3.70,17.18,,5.03,,0.73,,, NC
VC17-1,2020-10-21T10:00:00Z,-78.79,52.66,3.70,17.14,,4.98,,0.72,,, NC
VC17-1,2020-10-21T10:30:00Z,-78.79,52.66,3.70,17.08,,4.94,,0.72,,, NC
VC17-1,2020-10-21T11:00:00Z,-78.79,52.66,3.70,17.03,,4.85,,0.70,,, NC
VC17-1,2020-10-21T11:30:00Z,-78.79,52.66,3.70,16.99,,4.77,,0.69,,, NC
VC17-1,2020-10-21T12:00:00Z,-78.79,52.66,3.70,16.98,,4.93,,0.72,,, NC
VC17-1,2020-10-21T12:30:00Z,-78.79,52.66,3.70,16.95,,4.82,,0.70,,, NC
VC17-1,2020-10-21T13:00:00Z,-78.79,52.66,3.70,16.89,,4.70,,0.68,,, NC
VC17-1,2020-10-21T13:30:00Z,-78.79,52.66,3.70,16.84,,4.51,,0.65,,, NC
VC17-1,2020-10-21T14:00:00Z,-78.79,52.66,3.70,16.57,,4.57,,0.66,,, NC
VC17-1,2020-10-21T14:30:00Z,-78.79,52.66,3.70,16.37,,4.74,,0.69,,, NC
VC17-1,2020-10-21T15:00:00Z,-78.79,52.66,3.70,16.34,,4.73,,0.69,,, NC
VC17-1,2020-10-21T15:30:00Z,-78.79,52.66,3.70,16.39,,4.75,,0.69,,, NC
VC17-1,2020-10-21T16:00:00Z,-78.79,52.66,3.70,16.41,,4.82,,0.70,,, NC
VC17-1,2020-10-21T16:30:00Z,-78.79,52.66,3.70,16.40,,4.83,,0.70,,, NC
VC17-1,2020-10-21T17:00:00Z,-78.79,52.66,3.70,16.39,,4.82,,0.70,,, NC
VC17-1,2020-10-21T17:30:00Z,-78.79,52.66,3.70,16.37,,4.83,,0.70,,, NC
VC17-1,2020-10-21T18:00:00Z,-78.79,52.66,3.70,16.37,,4.81,,0.70,,, NC
VC17-1,2020-10-21T18:30:00Z,-78.79,52.66,3.70,16.35,,4.77,,0.69,,, NC
VC17-1,2020-10-21T19:00:00Z,-78.79,52.66,3.70,16.30,,4.76,,0.69,,, NC
VC17-1,2020-10-21T19:30:00Z,-78.79,52.66,3.70,16.25,,4.72,,0.68,,, NC
VC17-1,2020-10-21T20:00:00Z,-78.79,52.66,3.70,16.20,,4.69,,0.68,,, NC
VC17-1,2020-10-21T20:30:00Z,-78.79,52.66,3.70,16.18,,4.67,,0.68,,, NC
VC17-1,2020-10-21T21:00:00Z,-78.79,52.66,3.70,16.15,,4.69,,0.68,,, NC
VC17-1,2020-10-21T21:30:00Z,-78.79,52.66,3.70,16.14,,4.67,,0.68,,, NC
VC17-1,2020-10-21T22:00:00Z,-78.79,52.66,3.70,16.10,,4.64,,0.67,,, NC
VC17-1,2020-10-21T22:30:00Z,-78.79,52.66,3.70,16.12,,4.57,,0.66,,, NC
VC17-1,2020-10-21T23:00:00Z,-78.79,52.66,3.70,16.10,,4.56,,0.66,,, NC
VC17-1,2020-10-21T23:30:00Z,-78.79,52.66,3.70,16.09,,4.33,,0.63,,, NC
VC17-1,2020-10-22T00:00:00Z,-78.79,52.66,3.70,16.07,,4.14,,0.60,,, NC
VC17-1,2020-10-22T00:30:00Z,-78.79,52.66,3.70,15.60,,4.10,,0.59,,, NC
VC17-1,2020-10-22T01:00:00Z,-78.79,52.66,3.70,15.27,,4.15,,0.60,,, NC
VC17-1,2020-10-22T01:30:00Z,-78.79,52.66,3.70,15.48,,4.33,,0.63,,, NC
VC17-1,2020-10-22T02:00:00Z,-78.79,52.66,3.70,15.74,,4.62,,0.67,,, NC
VC17-1,2020-10-22T02:30:00Z,-78.79,52.66,3.70,15.87,,4.72,,0.68,,, NC
VC17-1,2020-10-22T03:00:00Z,-78.79,52.66,3.70,15.99,,4.95,,0.72,,, NC
VC17-1,2020-10-22T03:30:00Z,-78.79,52.66,3.70,16.11,,5.04,,0.73,,, NC
VC17-1,2020-10-22T04:00:00Z,-78.79,52.66,3.70,16.07,,4.98,,0.72,,, NC
VC17-1,2020-10-22T04:30:00Z,-78.79,52.66,3.70,16.04,,5.00,,0.73,,, NC
VC17-1,2020-10-22T05:00:00Z,-78.79,52.66,3.70,16.05,,4.99,,0.72,,, NC
VC17-1,2020-10-22T05:30:00Z,-78.79,52.66,3.70,16.07,,4.99,,0.72,,, NC
VC17-1,2020-10-22T06:00:00Z,-78.79,52.66,3.70,16.10,,4.98,,0.72,,, NC
VC17-1,2020-10-22T06:30:00Z,-78.79,52.66,3.70,16.09,,4.99,,0.72,,, NC
VC17-1,2020-10-22T07:00:00Z,-78.79,52.66,3.70,16.04,,4.98,,0.72,,, NC
VC17-1,2020-10-22T07:30:00Z,-78.79,52.66,3.70,16.03,,4.98,,0.72,,, NC
VC17-1,2020-10-22T08:00:00Z,-78.79,52.66,3.70,16.01,,4.97,,0.72,,, NC
VC17-1,2020-10-22T08:30:00Z,-78.79,52.66,3.70,16.00,,4.99,,0.72,,, NC
VC17-1,2020-10-22T09:00:00Z,-78.79,52.66,3.70,15.98,,5.00,,0.73,,, NC
VC17-1,2020-10-22T09:30:00Z,-78.79,52.66,3.70,16.00,,4.98,,0.72,,, NC
VC17-1,2020-10-22T10:00:00Z,-78.79,52.66,3.70,15.98,,4.98,,0.72,,, NC
VC17-1,2020-10-22T10:30:00Z,-78.79,52.66,3.70,15.92,,4.98,,0.72,,, NC
VC17-1,2020-10-22T11:00:00Z,-78.79,52.66,3.70,15.89,,4.98,,0.72,,, NC
VC17-1,2020-10-22T11:30:00Z,-78.79,52.66,3.70,15.88,,4.97,,0.72,,, NC
VC17-1,2020-10-22T12:00:00Z,-78.79,52.66,3.70,15.87,,4.98,,0.72,,, NC
VC17-1,2020-10-22T12:30:00Z,-78.79,52.66,3.70,15.85,,4.98,,0.72,,, NC
VC17-1,2020-10-22T13:00:00Z,-78.79,52.66,3.70,15.84,,4.93,,0.72,,, NC
VC17-1,2020-10-22T13:30:00Z,-78.79,52.66,3.70,15.69,,4.91,,0.71,,, NC
VC17-1,2020-10-22T14:00:00Z,-78.79,52.66,3.70,15.58,,4.97,,0.72,,, NC
VC17-1,2020-10-22T14:30:00Z,-78.79,52.66,3.70,15.50,,4.93,,0.72,,, NC
VC17-1,2020-10-22T15:00:00Z,-78.79,52.66,3.70,15.37,,4.84,,0.70,,, NC
VC17-1,2020-10-22T15:30:00Z,-78.79,52.66,3.70,15.25,,4.78,,0.69,,, NC
VC17-1,2020-10-22T16:00:00Z,-78.79,52.66,3.70,15.15,,4.74,,0.69,,, NC
VC17-1,2020-10-22T16:30:00Z,-78.79,52.66,3.70,15.11,,4.85,,0.70,,, NC
VC17-1,2020-10-22T17:00:00Z,-78.79,52.66,3.70,15.12,,4.99,,0.72,,, NC
VC17-1,2020-10-22T17:30:00Z,-78.79,52.66,3.70,15.13,,5.03,,0.73,,, NC
VC17-1,2020-10-22T18:00:00Z,-78.79,52.66,3.70,15.16,,5.03,,0.73,,, NC
VC17-1,2020-10-22T18:30:00Z,-78.79,52.66,3.70,15.17,,5.03,,0.73,,, NC
VC17-1,2020-10-22T19:00:00Z,-78.79,52.66,3.70,15.16,,5.03,,0.73,,, NC